KB2UHF-8 Weather Reports


Display with metric or nautical units.
time (UTC)temp
F
wind
direction
speed
MPH
gust
MPH
rain 1hr
in
rain 24hr
in
rain mn
in
humidity
%
barometer
mb
20260901220516 86 203 2.0 4.0 0.00 0.00 0.00 68 1014.2
20260901215516 86 203 1.0 4.0 0.00 0.00 0.00 71 1014.1
20260901214516 85 0.0 2.0 0.00 0.00 0.00 77 1014.2
20260901213516 85 225 1.0 5.0 0.00 0.00 0.00 77 1014.0
20260901212516 85 225 3.0 5.0 0.00 0.00 0.00 76 1014.1
20260901211516 84 225 2.0 5.0 0.00 0.00 0.00 76 1014.2
20260901210516 83 0.0 2.0 0.00 0.00 0.00 78 1014.1
20260901205516 84 0.0 0.0 0.00 0.00 0.00 76 1013.6
20260901204516 84 0.0 2.0 0.00 0.00 0.00 74 1013.7
20260901203516 84 203 2.0 9.0 0.00 0.00 0.00 72 1014.5
20260901202536 85 248 4.0 8.0 0.00 0.00 0.00 73 1015.1
20260901201515 87 248 3.0 8.0 0.00 0.00 0.00 70 1015.1
20260901200556 86 248 4.0 8.0 0.00 0.00 0.00 72 1014.9
20260901195516 87 225 3.0 8.0 0.00 0.00 0.00 72 1014.9
20260901194515 88 225 3.0 8.0 0.00 0.00 0.00 70 1015.0
20260901193515 89 225 3.0 10.0 0.00 0.00 0.00 69 1015.1
20260901192515 89 225 3.0 7.0 0.00 0.00 0.00 69 1015.1
20260901191516 89 225 3.0 7.0 0.00 0.00 0.00 71 1015.1
20260901190516 89 225 1.0 5.0 0.00 0.00 0.00 67 1015.0
20260901185515 88 225 2.0 6.0 0.00 0.00 0.00 70 1015.1
20260901184516 88 225 1.0 3.0 0.00 0.00 0.00 69 1015.2
20260901183516 87 293 2.0 9.0 0.00 0.00 0.00 71 1015.1
20260901182515 87 248 2.0 5.0 0.00 0.00 0.00 68 1015.2
20260901181516 87 225 3.0 6.0 0.00 0.00 0.00 70 1015.1
20260901180515 86 225 2.0 4.0 0.00 0.00 0.00 72 1015.0
20260901175516 86 203 3.0 8.0 0.00 0.00 0.00 74 1015.1
20260901174515 85 248 2.0 7.0 0.00 0.00 0.00 80 1015.4
20260901173515 85 270 3.0 8.0 0.00 0.00 0.00 78 1015.3
20260901172516 85 225 2.0 6.0 0.00 0.00 0.00 75 1015.3
20260901171515 85 203 1.0 4.0 0.00 0.00 0.00 81 1015.3
20260901170515 84 248 1.0 6.0 0.00 0.00 0.00 80 1015.3
20260901165536 85 0.0 3.0 0.00 0.00 0.00 79 1015.5
20260901164515 84 158 1.0 4.0 0.00 0.00 0.00 80 1015.5
20260901163515 84 248 2.0 4.0 0.00 0.00 0.00 80 1015.4
20260901162516 83 0.0 2.0 0.00 0.00 0.00 81 1015.4
20260901161515 82 180 1.0 3.0 0.00 0.00 0.00 84 1015.6
20260901160535 81 225 2.0 5.0 0.00 0.00 0.00 86 1015.6
20260901155515 80 293 2.0 4.0 0.00 0.00 0.00 86 1015.5
20260901154515 79 248 1.0 4.0 0.00 0.00 0.00 92 1015.6
20260901153515 77 270 1.0 2.0 0.00 0.00 0.00 96 1015.5
20260901152515 76 293 1.0 3.0 0.00 0.00 0.00 98 1015.5
20260901151515 75 0.0 1.0 0.00 0.00 0.00 98 1015.2
20260901150515 74 0.0 0.0 0.00 0.00 0.00 98 1015.2
20260901145537 74 203 1.0 2.0 0.00 0.00 0.00 98 1015.2
20260901144515 74 0.0 0.0 0.00 0.00 0.00 99 1015.2
20260901143515 74 0.0 3.0 0.00 0.00 0.00 98 1015.1
20260901142515 74 0.0 0.0 0.00 0.00 0.00 98 1015.1
20260901141515 74 0.0 0.0 0.00 0.00 0.00 99 1015.2
20260901140535 73 0.0 0.0 0.00 0.00 0.00 99 1015.1
20260901135535 73 0.0 0.0 0.00 0.00 0.00 99 1015.2
20260901134555 72 0.0 0.0 0.00 0.00 0.00 99 1015.3
20260901133517 71 0.0 3.0 0.00 0.00 0.00 98 1015.5
20260901132517 71 248 1.0 3.0 0.00 0.00 0.00 98 1015.7
20260901131517 71 225 1.0 4.0 0.00 0.00 0.00 98 1015.6
20260901130537 70 225 1.0 3.0 0.00 0.00 0.00 98 1015.7
20260901125517 70 0.0 0.0 0.00 0.00 0.00 98 1015.5
20260901124517 70 0.0 0.0 0.00 0.00 0.00 98 1015.3
20260901123517 70 0.0 0.0 0.00 0.00 0.00 98 1015.1
20260901122517 70 0.0 0.0 0.00 0.00 0.00 98 1015.2
20260901121517 69 0.0 0.0 0.00 0.00 0.00 98 1014.9
20260901120517 69 0.0 0.0 0.00 0.00 0.00 98 1014.8
20260901115517 69 0.0 0.0 0.00 0.00 0.00 98 1014.7
20260901114537 69 0.0 0.0 0.00 0.00 0.00 98 1014.6
20260901113517 69 0.0 0.0 0.00 0.00 0.00 98 1014.6
20260901112537 69 0.0 0.0 0.00 0.00 0.00 97 1014.6
20260901111517 70 0.0 0.0 0.00 0.00 0.00 98 1014.6
20260901110517 70 0.0 0.0 0.00 0.00 0.00 98 1014.5
20260901105538 69 0.0 0.0 0.00 0.00 0.00 98 1014.3
20260901104517 69 0.0 0.0 0.00 0.00 0.00 98 1014.2
20260901103517 69 0.0 0.0 0.00 0.00 0.00 98 1014.4
20260901102517 69 0.0 2.0 0.00 0.00 0.00 97 1014.5
20260901101517 69 0.0 0.0 0.00 0.00 0.00 97 1014.5
20260901100517 70 0.0 0.0 0.00 0.00 0.00 97 1014.4
20260901095538 71 0.0 0.0 0.00 0.00 0.00 97 1014.5
20260901094517 71 0.0 0.0 0.00 0.00 0.00 98 1014.4
20260901093537 71 0.0 0.0 0.00 0.00 0.00 98 1014.3
20260901092517 70 0.0 0.0 0.00 0.00 0.00 98 1014.2
20260901091517 70 0.0 0.0 0.00 0.00 0.00 97 1014.3
20260901090517 70 0.0 0.0 0.00 0.00 0.00 97 1014.2
20260901085516 71 0.0 0.0 0.00 0.00 0.00 97 1014.2
20260901084517 72 0.0 0.0 0.00 0.00 0.00 97 1014.2
20260901083517 72 0.0 0.0 0.00 0.00 0.00 98 1014.3
20260901082517 72 0.0 0.0 0.00 0.00 0.00 97 1014.4
20260901081517 73 0.0 0.0 0.00 0.00 0.00 98 1014.3
20260901080517 72 0.0 0.0 0.00 0.00 0.00 97 1014.3
20260901075517 72 0.0 0.0 0.00 0.00 0.00 98 1014.4
20260901074516 71 0.0 0.0 0.00 0.00 0.00 97 1014.7
20260901073517 72 0.0 0.0 0.00 0.00 0.00 96 1014.6
20260901072516 73 0.0 0.0 0.00 0.00 0.00 97 1014.7
20260901071616 73 0.0 0.0 0.00 0.00 0.00 97 1014.6
20260901070516 73 0.0 0.0 0.00 0.00 0.00 97 1014.4
20260901065517 73 0.0 0.0 0.00 0.00 0.00 97 1014.4
20260901064517 73 0.0 0.0 0.00 0.00 0.00 96 1014.5
20260901063537 73 0.0 0.0 0.00 0.00 0.00 97 1014.5
20260901062516 73 0.0 0.0 0.00 0.00 0.00 97 1014.6
20260901061536 73 0.0 0.0 0.00 0.00 0.00 97 1014.4
20260901060517 73 0.0 0.0 0.00 0.00 0.00 97 1014.3
20260901055517 73 0.0 0.0 0.00 0.00 0.00 96 1014.3
20260901054516 74 0.0 0.0 0.00 0.00 0.00 96 1014.4
20260901053516 74 0.0 0.0 0.00 0.00 0.00 96 1014.2
20260901052516 74 0.0 0.0 0.00 0.00 0.00 96 1014.3
20260901051516 74 0.0 0.0 0.00 0.00 0.00 96 1014.3
20260901050516 74 0.0 0.0 0.00 0.00 0.00 96 1014.2
20260901045515 74 0.0 0.0 0.00 0.00 0.00 95 1013.9
20260901044515 74 0.0 0.0 0.00 0.00 0.00 95 1013.9
20260901043517 74 0.0 0.0 0.00 0.00 0.00 95 1013.8
20260901042517 75 0.0 1.0 0.00 0.00 0.00 94 1013.8
20260901041517 75 0.0 0.0 0.00 0.00 0.00 94 1013.9
20260901040517 75 0.0 0.0 0.00 0.00 0.00 94 1014.0
20260901035517 75 0.0 0.0 0.00 0.00 0.00 93 1014.1
20260901034517 76 0.0 1.0 0.00 0.00 0.00 93 1014.0
20260901033517 76 0.0 3.0 0.00 0.00 0.00 92 1014.0
20260901032517 76 180 2.0 4.0 0.00 0.00 0.00 92 1014.1
20260901031517 76 0.0 0.0 0.00 0.00 0.00 92 1014.1
20260901030517 76 0.0 0.0 0.00 0.00 0.00 92 1014.1
20260901025517 77 0.0 0.0 0.00 0.00 0.00 91 1014.0
20260901024538 77 0.0 0.0 0.00 0.00 0.00 90 1014.2
20260901023537 77 0.0 0.0 0.00 0.00 0.00 90 1014.0
20260901022517 77 0.0 0.0 0.00 0.00 0.00 89 1014.0
20260901021517 77 0.0 0.0 0.00 0.00 0.00 89 1014.1
20260901020517 78 0.0 0.0 0.00 0.00 0.00 88 1013.9
20260901015517 78 0.0 0.0 0.00 0.00 0.00 88 1013.9
20260901014517 78 0.0 0.0 0.00 0.00 0.00 87 1013.8
20260901013517 78 0.0 0.0 0.00 0.00 0.00 86 1013.6
20260901012517 79 0.0 0.0 0.00 0.00 0.00 85 1013.5
20260901011517 80 203 1.0 3.0 0.00 0.00 0.00 84 1013.3
20260901010517 80 203 1.0 4.0 0.00 0.00 0.00 83 1013.4
20260901005537 81 203 1.0 4.0 0.00 0.00 0.00 82 1013.3
20260901004517 82 0.0 0.0 0.00 0.00 0.00 81 1013.4
20260901003517 82 0.0 0.0 0.00 0.00 0.00 80 1013.4
20260901002517 83 0.0 2.0 0.00 0.00 0.00 80 1013.4
20260901001518 83 0.0 3.0 0.00 0.00 0.00 79 1013.3
20260901000537 83 0.0 0.0 0.00 0.00 0.00 80 1013.2
20260831235517 83 248 2.0 4.0 0.00 0.17 0.00 79 1013.2
20260831234537 84 0.0 3.0 0.00 0.17 0.00 78 1013.2
20260831233518 84 225 1.0 4.0 0.00 0.17 0.00 79 1013.2
20260831232517 84 225 2.0 5.0 0.00 0.17 0.00 77 1013.1
20260831231517 85 248 3.0 7.0 0.00 0.17 0.00 75 1012.9
20260831230517 86 225 2.0 6.0 0.00 0.17 0.00 77 1012.9
20260831225517 86 225 1.0 9.0 0.00 0.17 0.00 78 1012.7
20260831224537 84 225 2.0 5.0 0.00 0.17 0.00 81 1012.6
20260831223517 85 225 1.0 5.0 0.00 0.17 0.00 79 1012.6
20260831222537 86 225 1.0 4.0 0.00 0.17 0.00 78 1012.9
20260831221516 85 203 1.0 3.0 0.00 0.17 0.00 80 1012.7